Kezdőlap
METAR-TAF:

METAR-TAF

Repülőterek :

Decorah Municipal Airport

Decorah, Iowa, Amerikai Egyesült Államok

földrajzi szélesség: 43-17N, földrajzi hosszúság: 091-44W, magasság: 353 m

Jelenlegi meteorológiai megfigyelések

A jelentés 18 perccel ezelõtt készült, 10:35 UTC
Dél-délkeleti szél 4 kt
Hőmérséklet 20°C
Páratartalom 100%
Légköri nyomás 1014 hPa
Látótávolság: 14.5 km
Kevés felhő 4600 lábon
Szórványos felhőzet 10000 lábon

METAR: KDEH 081035Z AUTO 15004KT 9SM FEW046 SCT100 20/20 A2993 RMK AO2

Idő: 05:53 (10:53 UTC)


TAF: hiányzik

Meteorológiai megfigyelések és előrejelzések több, mint 4000 repülőtéren (METAR és TAF jelentéseket).

A térképen piros és sárga pontok jelzik az elérhető meteorológiai állomásokat.

Mozgassa az egeret a pont fölött, hogy megjelenjen az állomás neve.

Azután kattintson az időjárási megfigyelések és előrejelzések megtekintéséhez.

A térkép megváltoztatása: kattintson a fekete keresztel jelölt zöld gombra ráközelítéshez, a vonallal jelölt zöld gombra távolításhoz, vagy a zöld nyilakra a szomszédos térképek eléréséhez.


METAR-TAF: